[[{"header":{"parameterUnit":"m.s-1","parameterCategory":1,"la1":30.2991,"la2":30.254,"lo1":-89.0895,"lo2":-89.0444,"dy":0.0017,"dx":0.0017,"nx":28,"ny":28,"refTime":"2025-12-24T03:00:00:Z","depth":0,"parameterNumber":2,"parameterNumberName":"U-component_of_WINDS"},"data":[0,0,0,0,0,0,0,0,0,0,0,0,0,0,0,0,0,0,0,0,0,0,0,0,0,0,0,0,0,0,0,0,0,0,0,0,0,0,0,0,0,0,0,0,0,0,0,0,0,0,0,0,0,0,0,0,0,0,1.7754,1.7755,0,1.7818,1.7819,1.782,1.7805,1.7803,1.7802,1.7801,1.7868,1.7871,1.7874,0,0,0,0,0,0,0,0,0,0,0,0,0,1.762,1.7622,1.7754,1.7755,1.7756,1.7818,1.7819,1.782,1.7805,1.7803,1.7802,1.78,1.7867,1.787,1.7874,0,0,0,0,0,0,0,0,0,0,0,0,0,1.768,1.7623,1.7754,1.7755,1.7756,1.7818,1.7819,1.782,1.7805,1.7803,1.7801,1.78,1.7866,1.787,1.7874,1.7939,0,0,1.7888,1.789,0,0,0,0,0,0,0,0,1.7677,1.7685,1.7754,1.7755,1.7756,1.7802,1.7796,1.786,1.7806,1.7787,1.7801,1.7799,1.7847,1.7853,1.7869,1.7942,1.7945,1.7888,1.7891,1.7893,1.7894,0,0,0,0,0,0,0,1.7673,1.7682,1.7779,1.7755,1.7757,1.7754,1.776,1.7808,1.7827,1.7788,1.7787,1.7795,1.7848,1.7865,1.7871,1.7946,1.7888,1.7892,1.7895,1.7896,1.8076,1.8078,0,0,0,0,0,0,1.7667,1.7679,1.7777,1.7781,1.7711,1.7758,1.7765,1.7789,1.7826,1.783,1.7797,1.7794,1.7859,1.7866,1.7873,1.7951,1.7893,1.7897,1.7899,1.8073,1.8076,1.8078,0,0,0,0,0,0,1.7665,1.7676,1.7775,1.773,1.7742,1.7762,1.7789,1.7791,1.7809,1.7832,1.7836,1.7811,1.7857,1.7867,1.7923,1.7954,1.7899,1.7903,1.8071,1.8074,1.8077,1.8108,0,0,0,0,0,0,1.7661,1.7675,1.7699,1.7731,1.7745,1.7823,1.7791,1.7794,1.7816,1.7814,1.7847,1.7851,1.7857,1.7916,1.7927,1.7959,1.7906,1.8068,1.8072,1.8076,1.8105,1.8112,1.8119,0,0,0,0,0,1.7656,1.7706,1.7701,1.7713,1.7775,1.7825,1.7833,1.7838,1.7819,1.7844,1.7859,1.7849,1.7949,1.7922,1.7934,1.7967,1.8066,1.8071,1.8076,1.8101,1.8111,1.8118,0,0,0,0,0,0,1.7677,1.771,1.7705,1.7766,1.7793,1.7822,1.7853,1.7848,1.7881,1.7877,1.7883,1.7891,1.7948,1.7963,1.7933,1.8032,1.8005,1.8012,1.802,1.8029,1.8036,1.8031,1.791,0,0,0,0,0,1.7689,1.7726,1.7753,1.7804,1.7818,1.7833,1.7855,1.7857,1.7885,1.7897,1.7916,1.7944,1.7982,1.8006,1.8042,1.8107,1.8114,1.8136,1.8143,1.8149,1.8155,1.8191,1.8201,1.8094,1.8094,1.8094,0,0,1.7714,1.7736,1.7759,1.7809,1.783,1.7869,1.7843,1.7885,1.7914,1.7903,1.7957,1.7973,1.8004,1.8065,1.8093,1.808,1.8186,1.8155,1.8159,1.8162,1.8197,1.8207,1.8216,1.8097,1.8097,1.8096,0,0,1.7779,1.7799,1.7845,1.7867,1.7899,1.7909,1.792,1.7951,1.7961,1.8015,1.8008,1.8043,1.8107,1.8131,1.8151,1.8226,1.8219,1.8238,1.8274,1.831,1.8318,1.8326,1.8353,1.8363,1.8244,1.8244,1.8244,0,1.7805,1.7863,1.7869,1.7912,1.7934,1.7927,1.7973,1.7994,1.8037,1.8053,1.8037,1.8119,1.814,1.8206,1.8225,1.8241,1.8254,1.8234,1.8316,1.8324,1.8331,1.8357,1.8367,1.8246,1.8246,1.8246,1.8246,0,1.7895,1.7935,1.7968,1.8009,1.8036,1.808,1.8093,1.8119,1.812,1.8132,1.8188,1.8213,1.8254,1.827,1.8271,1.8337,1.8328,1.8315,1.8287,1.8343,1.8368,1.8378,1.8249,1.8249,1.8248,1.8248,0,0,1.7973,1.8018,1.803,1.805,1.8085,1.8117,1.8162,1.8202,1.8225,1.8255,1.8293,1.8348,1.8336,1.8359,1.8363,1.8394,1.8453,1.8377,1.8378,1.839,1.8528,1.8538,1.8549,1.8449,1.8451,1.8452,1.8526,0,1.8042,1.812,1.8127,1.8198,1.8235,1.823,1.8269,1.8296,1.8309,1.8343,1.8358,1.8397,1.8378,1.8392,1.8423,1.8439,1.8481,1.8434,1.8484,1.8486,1.8476,1.8562,1.8572,1.864,1.8535,1.8537,1.8538,0,1.8131,1.8164,1.8239,1.827,1.8286,1.8321,1.8359,1.8392,1.8423,1.843,1.8457,1.8457,1.8504,1.8475,1.854,1.8508,1.8529,1.8541,1.8544,1.8548,1.8515,1.8569,1.8662,1.8672,1.8553,1.8552,1.8551,0,1.8181,1.8245,1.8297,1.8314,1.8352,1.8377,1.8394,1.8423,1.8447,1.8481,1.8497,1.8536,1.8557,1.8587,1.8598,1.8576,1.8663,1.8634,1.867,1.867,1.8688,1.8687,1.8786,1.8703,1.8702,1.8702,1.8702,0,1.8256,1.8302,1.8321,1.8353,1.8405,1.8413,1.8464,1.848,1.8506,1.8542,1.854,1.8574,1.8586,1.8622,1.8631,1.8684,1.8693,1.8701,1.8703,1.8701,1.87,1.8714,1.871,1.8705,1.8704,1.8704,1.8703,0,1.8321,1.8335,1.8392,1.8424,1.8433,1.847,1.8498,1.8529,1.8543,1.8588,1.86,1.862,1.8663,1.8677,1.8728,1.8734,1.8796,1.8793,1.8785,1.8785,1.882,1.8817,1.8932,1.8948,1.8854,1.8855,1.8856,0,1.8367,1.8403,1.8439,1.8463,1.8481,1.852,1.8544,1.8554,1.858,1.8619,1.8646,1.8689,1.8723,1.8792,1.8811,1.8851,1.885,1.8887,1.8855,1.8853,1.885,1.8848,1.8851,1.8893,1.8894,1.8895,1.8895,0,1.8449,1.8455,1.849,1.8529,1.8559,1.859,1.862,1.8639,1.8654,1.8684,1.8727,1.8754,1.8807,1.8849,1.889,1.8908,1.8905,1.8905,1.8916,1.8914,1.8908,1.8912,1.8801,1.8902,1.8902,1.8901,1.8901,1.8901,1.8506,1.8537,1.8568,1.8608,1.8632,1.866,1.8692,1.8709,1.8745,1.8789,1.8793,1.8841,1.8872,1.8926,1.8947,1.8984,1.8973,1.8988,1.8992,1.8996,1.8998,1.8902,1.8992,1.8991,1.8991,1.8991,1.8991,0,1.8587,1.8607,1.8644,1.8686,1.8718,1.8712,1.8745,1.8772,1.8814,1.8843,1.8877,1.8928,1.8969,1.8993,1.9034,1.906,1.9059,1.9071,1.9068,1.9073,1.9005,1.8992,1.907,1.907,1.907,1.907,1.907,1.907,1.8633,1.8686,1.8695,1.876,1.878,1.8826,1.8846,1.8872,1.8896,1.8952,1.8987,1.9002,1.9029,1.9073,1.9111,1.9117,1.9132,1.9144,1.9149,1.9086,1.9077,1.907,1.9057,1.9148,1.9148,1.9213,1.9214,1.9214]},{"header":{"parameterUnit":"m.s-1","parameterCategory":1,"la1":30.2991,"la2":30.254,"lo1":-89.0895,"lo2":-89.0444,"dy":0.0017,"dx":0.0017,"nx":28,"ny":28,"refTime":"2025-12-24T03:00:00:Z","depth":0,"parameterNumber":3,"parameterNumberName":"V-component_of_WINDS"},"data":[0,0,0,0,0,0,0,0,0,0,0,0,0,0,0,0,0,0,0,0,0,0,0,0,0,0,0,0,0,0,0,0,0,0,0,0,0,0,0,0,0,0,0,0,0,0,0,0,0,0,0,0,0,0,0,0,0,0,0.7377,0.7378,0,0.7411,0.7411,0.7411,0.7426,0.7426,0.7426,0.7426,0.7458,0.7459,0.746,0,0,0,0,0,0,0,0,0,0,0,0,0,0.7325,0.7326,0.7377,0.7378,0.7378,0.741,0.7411,0.7411,0.7426,0.7426,0.7426,0.7426,0.7458,0.7459,0.746,0,0,0,0,0,0,0,0,0,0,0,0,0,0.7352,0.7326,0.7377,0.739,0.7391,0.741,0.7411,0.7411,0.7426,0.7426,0.7426,0.7426,0.7458,0.7459,0.746,0.747,0,0,0.7464,0.7465,0,0,0,0,0,0,0,0,0.735,0.7354,0.7387,0.7389,0.739,0.7414,0.7404,0.7431,0.7426,0.7413,0.7426,0.7426,0.7444,0.7446,0.7452,0.7471,0.7472,0.7465,0.7465,0.7466,0.7466,0,0,0,0,0,0,0,0.7348,0.7352,0.739,0.7388,0.739,0.7393,0.7397,0.7409,0.7428,0.7414,0.7415,0.7419,0.7445,0.7451,0.7453,0.7473,0.7465,0.7466,0.7467,0.7467,0.75,0.75,0,0,0,0,0,0,0.7345,0.7351,0.7389,0.7391,0.737,0.7394,0.7398,0.7407,0.7428,0.7431,0.7419,0.742,0.7449,0.7452,0.7454,0.7466,0.7466,0.7467,0.7468,0.75,0.75,0.75,0,0,0,0,0,0,0.7344,0.7348,0.7388,0.7371,0.7377,0.7395,0.7404,0.7407,0.7414,0.7432,0.7435,0.7423,0.7449,0.7453,0.7466,0.7468,0.7468,0.7469,0.7499,0.75,0.75,0.749,0,0,0,0,0,0,0.7342,0.7348,0.7352,0.7371,0.7378,0.7399,0.7404,0.7408,0.7416,0.7418,0.7436,0.7439,0.7449,0.7464,0.7467,0.7469,0.747,0.7499,0.75,0.75,0.749,0.7489,0.7489,0,0,0,0,0,0.734,0.7347,0.7352,0.7357,0.7383,0.7399,0.7403,0.7415,0.7417,0.7421,0.7432,0.7438,0.7467,0.7465,0.7469,0.7472,0.7499,0.7499,0.75,0.749,0.749,0.7489,0,0,0,0,0,0,0.7327,0.735,0.7356,0.737,0.7382,0.7402,0.7407,0.7414,0.7426,0.7427,0.7441,0.7445,0.7456,0.7465,0.7463,0.7481,0.7483,0.7484,0.7475,0.7475,0.7474,0.7472,0.7471,0,0,0,0,0,0.7326,0.7338,0.7357,0.7368,0.7374,0.7389,0.7397,0.7405,0.7419,0.7424,0.7436,0.7449,0.7461,0.7468,0.748,0.7491,0.7495,0.7495,0.7494,0.7494,0.7495,0.7501,0.7501,0.75,0.75,0.75,0,0,0.7324,0.7338,0.7344,0.7365,0.7376,0.7387,0.7394,0.7406,0.7414,0.7426,0.7439,0.7448,0.7463,0.7475,0.7481,0.7483,0.7496,0.7494,0.7494,0.7495,0.7501,0.7501,0.7501,0.75,0.75,0.75,0,0,0.7325,0.7337,0.7347,0.7358,0.7375,0.7385,0.7387,0.7405,0.7412,0.7426,0.7435,0.7444,0.7464,0.7474,0.7482,0.7486,0.7492,0.7489,0.7487,0.7493,0.7493,0.7493,0.7494,0.7494,0.749,0.749,0.749,0,0.732,0.7338,0.7351,0.7363,0.7371,0.7383,0.7392,0.7402,0.7421,0.7426,0.7428,0.7453,0.7464,0.7478,0.7479,0.7485,0.7487,0.7487,0.7492,0.7492,0.7492,0.7493,0.7494,0.7489,0.7489,0.7489,0.749,0,0.7331,0.7343,0.7349,0.7368,0.7377,0.7387,0.7401,0.7409,0.7416,0.7425,0.7438,0.7452,0.7466,0.747,0.7477,0.7485,0.7485,0.7489,0.7492,0.7492,0.7493,0.7494,0.7489,0.7489,0.7489,0.7489,0,0,0.7326,0.7352,0.7353,0.7362,0.738,0.739,0.74,0.7414,0.742,0.7433,0.7442,0.7458,0.7461,0.747,0.7478,0.7483,0.7485,0.7486,0.7486,0.7485,0.7494,0.7491,0.7491,0.7489,0.7489,0.7489,0.7492,0,0.733,0.735,0.7362,0.7376,0.7387,0.7398,0.7407,0.7419,0.7428,0.7438,0.7447,0.7459,0.7462,0.7468,0.7473,0.7483,0.7487,0.7483,0.7496,0.7497,0.7492,0.7492,0.7489,0.7492,0.7493,0.7493,0.7493,0,0.7338,0.7351,0.7366,0.7383,0.7388,0.7396,0.741,0.742,0.7433,0.7439,0.7448,0.7456,0.7466,0.7468,0.7482,0.748,0.7485,0.7491,0.7491,0.7493,0.7495,0.7493,0.7493,0.7493,0.7494,0.7494,0.7494,0,0.7332,0.7353,0.7366,0.7372,0.7392,0.7397,0.7406,0.7419,0.7427,0.7438,0.7443,0.7456,0.7463,0.7472,0.7482,0.7483,0.7495,0.7498,0.75,0.75,0.7502,0.7502,0.7502,0.7506,0.7506,0.7506,0.7506,0,0.7336,0.7345,0.7363,0.7371,0.7381,0.7394,0.7403,0.7413,0.7424,0.7433,0.7442,0.745,0.7464,0.7473,0.7481,0.7491,0.7494,0.7499,0.7501,0.7498,0.7498,0.7503,0.7503,0.7506,0.7506,0.7506,0.7506,0,0.7332,0.7344,0.7358,0.7376,0.7381,0.7387,0.7402,0.7409,0.7418,0.7429,0.7433,0.7447,0.7458,0.747,0.7485,0.749,0.75,0.7503,0.7496,0.7497,0.7498,0.7498,0.7502,0.7503,0.7505,0.7505,0.7505,0,0.7333,0.7341,0.7359,0.7366,0.7374,0.7385,0.7393,0.7405,0.7413,0.7428,0.7433,0.7445,0.7456,0.7473,0.7484,0.7495,0.7499,0.7499,0.75,0.7497,0.7498,0.7498,0.7498,0.7499,0.7499,0.7499,0.7499,0,0.7334,0.734,0.7352,0.7365,0.7374,0.7385,0.7396,0.7401,0.7415,0.7423,0.7435,0.7443,0.7458,0.747,0.7482,0.749,0.7496,0.7498,0.7499,0.7496,0.7492,0.7494,0.7494,0.7498,0.7498,0.7498,0.7498,0.7498,0.7333,0.734,0.7354,0.7366,0.7376,0.7386,0.7393,0.7403,0.7414,0.7428,0.7434,0.7446,0.7458,0.7475,0.7483,0.7491,0.7493,0.7495,0.7495,0.7495,0.7494,0.749,0.7494,0.7494,0.7494,0.7494,0.7494,0,0.7335,0.7344,0.7355,0.737,0.738,0.7385,0.7397,0.7404,0.7415,0.7426,0.7436,0.7449,0.746,0.7472,0.7483,0.7488,0.7491,0.749,0.749,0.7492,0.7492,0.749,0.7488,0.7488,0.7488,0.7488,0.7488,0.7488,0.7337,0.7348,0.7355,0.7372,0.7381,0.7393,0.7399,0.7408,0.7417,0.7431,0.7441,0.7449,0.746,0.7472,0.7482,0.7485,0.7489,0.7487,0.7491,0.7491,0.7492,0.7492,0.749,0.7488,0.7488,0.749,0.749,0.749]}]]